This demonstration page uses our WeatherBlox Daily Observations layout. Learn more.

39.29038, -76.61219

Hourly Observations for March 1, 2019

Temp ( °F °C ) Dew Point ( °F °C ) Humidity (%) Winds ( mph kmh ) Pressure ( in mb ) Visibility ( mi km ) Precip ( " mm )
12:54 am 00:54 undefined 37 2.8 24 -4.4 59 59 undefined N/A 30.25 1024 N/A 0 0
1:54 am 01:54 undefined 32 0 28 -2.2 85 85 undefined N/A 30.25 1025 N/A 0.02 0.508
2:54 am 02:54 undefined 32 0 29 -1.7 88 88 undefined N/A 30.24 1024 N/A 0.12 3.048
3:54 am 03:54 undefined 32 0 29 -1.7 88 88 undefined N/A 30.25 1025 N/A 0.08 2.032
4:54 am 04:54 undefined 32 0 28 -2.2 85 85 undefined N/A 30.24 1024 N/A 0.04 1.016
5:54 am 05:54 undefined 32 0 28 -2.2 85 85 undefined N/A 30.26 1025 N/A 0 0
6:54 am 06:54 undefined 32 0 28 -2.2 85 85 undefined N/A 30.26 1025 N/A 0 0
7:54 am 07:54 undefined 32 0 28 -2.2 85 85 undefined N/A 30.28 1025 N/A 0 0
8:54 am 08:54 undefined 32 0 28 -2.2 85 85 undefined N/A 30.29 1026 N/A 0 0
9:54 am 09:54 undefined 33 0.6 28 -2.2 82 82 undefined N/A 30.29 1026 N/A 0 0
10:54 am 10:54 undefined 33 0.6 27 -2.8 78 78 undefined N/A 30.29 1026 N/A 0 0
11:54 am 11:54 undefined 34 1.1 28 -2.2 79 79 undefined N/A 30.29 1026 N/A 0 0
12:54 pm 12:54 undefined 35 1.7 28 -2.2 76 76 undefined N/A 30.27 1025 N/A 0 0
1:54 pm 13:54 undefined 35 1.7 28 -2.2 76 76 undefined N/A 30.27 1025 N/A 0 0
2:54 pm 14:54 undefined 36 2.2 29 -1.7 76 76 undefined N/A 30.24 1024 N/A 0 0
3:54 pm 15:54 undefined 36 2.2 29 -1.7 76 76 undefined N/A 30.21 1023 N/A 0 0
4:54 pm 16:54 undefined 36 2.2 29 -1.7 76 76 undefined N/A 30.2 1023 N/A 0 0
5:54 pm 17:54 undefined 36 2.2 29 -1.7 76 76 undefined N/A 30.18 1022 N/A 0 0
6:54 pm 18:54 undefined 35 1.7 30 -1.1 82 82 undefined N/A 30.18 1022 N/A 0.02 0.508
7:54 pm 19:54 undefined 35 1.7 31 -0.6 85 85 undefined N/A 30.18 1022 N/A 0.04 1.016
8:54 pm 20:54 undefined 35 1.7 32 0 89 89 undefined N/A 30.17 1022 N/A 0.09 2.286
9:54 pm 21:54 undefined 35 1.7 32 0 89 89 undefined N/A 30.14 1021 N/A 0.11 2.794
10:54 pm 22:54 undefined 35 1.7 31 -0.6 85 85 undefined N/A 30.11 1020 N/A 0.12 3.048
11:54 pm 23:54 undefined 35 1.7 31 -0.6 85 85 undefined N/A 30.07 1018 N/A 0.13 3.302

Powered by AerisWeather